Precipitable_Water
1.28 1.28 1.26 1.24 1.23 1.22 1.18 1.20 1.22 1.19 1.15 1.12 1.05 1.05 1.05 1.08 1.11 1.10 1.10 1.10 1.08 1.04 1.05 1.07 1.08 1.09 1.17 1.23 1.24 1.24 1.22 1.18 1.17 1.18 1.12 1.11 1.07 1.06 1.06 1.06 1.06 1.08
1.29 1.28 1.26 1.27 1.25 1.24 1.23 1.24 1.23 1.19 1.13 1.09 1.05 1.05 1.07 1.09 1.10 1.10 1.08 1.07 1.06 1.04 1.07 1.08 1.09 1.08 1.10 1.15 1.21 1.20 1.21 1.21 1.17 1.22 1.14 1.10 1.08 1.09 1.05 1.07 1.07 1.12
1.32 1.27 1.26 1.25 1.23 1.21 1.26 1.27 1.22 1.16 1.09 1.06 1.07 1.08 1.07 1.11 1.09 1.10 1.09 1.05 1.03 1.06 1.07 1.07 1.08 1.08 1.07 1.08 1.11 1.14 1.16 1.15 1.15 1.20 1.16 1.12 1.11 1.09 1.09 1.09 1.09 1.10
1.33 1.29 1.28 1.28 1.25 1.22 1.28 1.24 1.19 1.13 1.10 1.05 1.04 1.06 1.08 1.08 1.08 1.05 1.02 1.05 1.04 1.04 1.02 1.00 0.99 1.00 1.00 1.04 1.04 1.02 1.07 1.12 1.17 1.18 1.15 1.12 1.10 1.13 1.11 1.11 1.10 1.08
1.27 1.28 1.30 1.27 1.24 1.28 1.28 1.19 1.13 1.11 1.09 1.08 1.08 1.07 1.04 1.02 1.00 0.97 1.03 1.03 1.03 0.99 0.97 0.93 0.95 0.96 0.97 0.98 0.97 0.97 1.02 1.05 1.11 1.12 1.08 1.07 1.09 1.12 1.12 1.08 1.06 1.04
1.30 1.31 1.29 1.23 1.27 1.28 1.24 1.18 1.10 1.10 1.10 1.08 1.07 1.06 1.02 1.00 0.95 0.99 1.04 1.01 1.00 0.98 0.89 0.93 0.97 0.98 0.96 0.94 0.92 0.93 0.94 0.96 1.02 1.05 1.03 1.03 1.06 1.13 1.11 1.08 1.06 1.05
1.30 1.30 1.26 1.26 1.27 1.29 1.25 1.16 1.09 1.08 1.10 1.08 1.08 1.04 1.04 1.01 0.99 1.03 1.03 1.01 0.97 0.88 0.89 0.95 0.95 0.95 0.96 0.90 0.89 0.89 0.89 0.89 0.91 0.93 0.93 0.98 1.03 1.07 1.11 1.10 1.07 1.04
1.33 1.31 1.27 1.28 1.27 1.27 1.24 1.14 1.08 1.07 1.08 1.08 1.05 1.08 1.09 1.04 1.05 1.07 1.06 1.04 0.89 0.83 0.91 0.94 0.93 0.95 0.93 0.85 0.87 0.86 0.85 0.89 0.91 0.94 0.92 0.90 0.94 1.01 1.06 1.11 1.09 1.03
1.34 1.28 1.26 1.27 1.27 1.26 1.22 1.15 1.10 1.07 1.08 1.06 1.06 1.07 1.07 1.07 1.07 1.04 1.00 0.90 0.82 0.81 0.87 0.89 0.90 0.90 0.90 0.83 0.83 0.81 0.81 0.85 0.87 0.91 0.91 0.86 0.88 0.96 1.05 1.11 1.08 1.06
1.33 1.32 1.24 1.26 1.26 1.25 1.21 1.16 1.11 1.08 1.09 1.07 1.08 1.04 1.00 1.06 1.06 1.01 0.98 0.90 0.85 0.82 0.85 0.85 0.87 0.85 0.86 0.85 0.80 0.79 0.81 0.84 0.85 0.88 0.87 0.88 0.88 0.97 1.07 1.09 1.07 1.07
1.33 1.31 1.23 1.24 1.25 1.24 1.20 1.14 1.09 1.08 1.08 1.06 1.03 0.96 1.00 1.04 1.06 0.99 0.98 0.93 0.87 0.85 0.85 0.90 0.88 0.84 0.86 0.83 0.80 0.81 0.84 0.86 0.85 0.85 0.82 0.84 0.89 0.96 1.06 1.10 1.10 1.09
1.29 1.26 1.23 1.23 1.24 1.23 1.18 1.11 1.07 1.08 1.07 1.07 1.00 0.92 1.00 1.03 1.02 0.97 0.98 0.96 0.90 0.87 0.87 0.92 0.91 0.87 0.88 0.85 0.81 0.78 0.80 0.81 0.81 0.82 0.86 0.88 0.91 0.95 1.06 1.08 1.09 1.06
1.28 1.24 1.22 1.27 1.25 1.21 1.18 1.10 1.08 1.08 1.05 1.03 1.00 0.98 1.01 1.03 1.04 1.01 0.99 0.96 0.90 0.88 0.90 0.96 0.93 0.89 0.88 0.84 0.76 0.74 0.73 0.75 0.75 0.82 0.85 0.89 0.91 0.94 1.01 1.02 1.02 1.01
1.28 1.26 1.24 1.28 1.28 1.25 1.16 1.10 1.11 1.12 1.08 1.05 1.03 1.00 1.01 1.04 1.02 1.01 1.00 0.95 0.91 0.93 0.95 0.99 0.95 0.92 0.90 0.86 0.80 0.71 0.67 0.69 0.77 0.83 0.87 0.88 0.88 0.89 0.95 0.98 0.98 0.98
1.29 1.31 1.29 1.29 1.30 1.23 1.15 1.11 1.14 1.12 1.09 1.06 1.03 1.00 1.00 1.02 1.01 1.00 0.95 0.90 0.92 0.94 0.94 1.00 0.97 0.95 0.96 0.89 0.82 0.73 0.70 0.72 0.80 0.83 0.83 0.85 0.86 0.85 0.90 0.94 0.92 0.90
1.34 1.31 1.28 1.32 1.27 1.22 1.15 1.13 1.13 1.11 1.08 1.06 1.01 0.99 0.98 0.99 0.97 0.98 0.95 0.90 0.89 0.92 0.91 0.94 0.96 0.97 0.99 0.95 0.86 0.79 0.73 0.75 0.81 0.82 0.83 0.83 0.84 0.83 0.83 0.90 0.89 0.87
1.35 1.27 1.24 1.26 1.29 1.21 1.14 1.11 1.10 1.10 1.09 1.06 1.02 0.99 0.96 0.95 0.94 0.94 0.94 0.91 0.88 0.89 0.89 0.90 0.93 0.94 0.98 0.95 0.91 0.84 0.80 0.76 0.79 0.77 0.80 0.83 0.82 0.84 0.83 0.85 0.87 0.87
1.31 1.27 1.26 1.25 1.27 1.25 1.16 1.14 1.10 1.08 1.07 1.06 1.01 0.98 0.96 0.95 0.92 0.92 0.93 0.93 0.91 0.90 0.89 0.89 0.91 0.92 0.97 0.95 0.95 0.91 0.88 0.83 0.84 0.81 0.80 0.81 0.82 0.84 0.89 0.89 0.90 0.91
1.31 1.26 1.25 1.26 1.22 1.24 1.24 1.17 1.10 1.08 1.07 1.04 1.00 1.01 0.98 0.93 0.91 0.90 0.92 0.93 0.91 0.89 0.89 0.89 0.89 0.91 0.94 0.93 0.95 0.94 0.94 0.93 0.92 0.89 0.87 0.87 0.90 0.91 0.91 0.95 0.97 0.96
1.29 1.26 1.25 1.24 1.22 1.25 1.26 1.16 1.12 1.08 1.07 1.06 1.02 1.00 0.97 0.94 0.91 0.90 0.92 0.92 0.90 0.89 0.88 0.89 0.89 0.91 0.92 0.93 0.95 0.94 0.95 0.96 0.96 0.94 0.93 0.94 0.96 0.99 0.98 0.98 0.99 0.96
1.26 1.25 1.22 1.23 1.24 1.26 1.23 1.18 1.14 1.10 1.08 1.06 1.03 1.00 0.98 0.95 0.93 0.90 0.92 0.92 0.90 0.89 0.89 0.89 0.90 0.92 0.92 0.93 0.95 0.96 0.95 0.95 0.97 0.98 0.98 0.99 1.02 1.05 1.05 1.04 1.04 1.05
1.23 1.22 1.23 1.26 1.26 1.23 1.18 1.15 1.12 1.11 1.08 1.08 1.03 1.02 1.01 0.99 0.96 0.94 0.91 0.90 0.90 0.91 0.91 0.90 0.90 0.90 0.92 0.93 0.95 0.96 0.96 0.94 0.93 0.94 0.96 0.99 1.01 1.03 1.04 1.06 1.07 1.08
1.19 1.17 1.17 1.19 1.18 1.14 1.13 1.11 1.10 1.11 1.12 1.10 1.04 1.02 0.99 0.99 0.97 0.95 0.94 0.92 0.90 0.89 0.88 0.85 0.82 0.84 0.89 0.93 0.95 0.97 0.96 0.96 0.96 0.95 0.95 0.98 1.01 1.00 0.99 1.00 1.01 1.00
1.18 1.16 1.15 1.15 1.15 1.14 1.12 1.12 1.15 1.16 1.13 1.08 1.05 1.03 0.98 0.96 0.96 0.95 0.94 0.92 0.87 0.86 0.85 0.80 0.79 0.81 0.84 0.88 0.91 0.94 0.97 0.97 0.96 0.95 0.96 0.98 1.01 1.00 0.96 0.92 0.91 0.94
1.16 1.17 1.16 1.15 1.14 1.13 1.14 1.14 1.14 1.14 1.14 1.11 1.10 1.08 1.02 1.00 0.99 0.96 0.96 0.95 0.94 0.92 0.91 0.89 0.88 0.88 0.89 0.89 0.90 0.90 0.91 0.91 0.90 0.89 0.87 0.90 0.91 0.88 0.88 0.86 0.85 0.86
1.11 1.11 1.12 1.13 1.13 1.12 1.13 1.14 1.13 1.13 1.12 1.11 1.09 1.08 1.05 1.04 1.03 1.02 0.99 0.97 0.98 0.97 0.93 0.91 0.89 0.88 0.87 0.86 0.85 0.85 0.84 0.84 0.83 0.79 0.76 0.77 0.78 0.79 0.80 0.83 0.84 0.85
Wind_Speed
13 13 13 13 14 15 16 16 17 16 17 17 16 16 15 14 13 13 12 12 11 11 11 11 10 10 10 10 10 9 9 9 9 9 9 9 9 10 9 9 9 9
14 14 13 13 13 14 16 16 17 17 17 17 16 15 14 14 14 13 12 12 11 11 11 11 11 10 10 10 10 10 10 10 9 9 9 9 9 9 9 9 9 9
15 15 14 14 14 15 16 16 17 17 17 17 16 15 14 14 13 13 12 12 11 11 11 11 11 10 10 10 10 10 10 10 9 9 9 9 9 9 9 9 9 9
16 16 15 15 15 16 16 17 17 17 17 17 17 16 15 14 13 13 12 12 11 11 10 10 10 10 10 11 11 10 10 10 10 9 9 9 9 9 9 9 9 9
16 16 16 15 15 16 17 17 18 18 18 18 17 16 15 14 13 13 12 12 11 10 10 10 10 10 10 10 11 10 10 10 10 9 9 9 8 8 9 9 9 9
17 17 16 16 16 16 17 18 18 18 18 18 17 16 15 14 13 13 13 12 11 10 10 10 9 10 10 10 10 10 10 10 10 9 9 9 8 8 9 9 9 9
18 17 16 16 16 17 18 19 19 18 18 18 18 16 15 14 13 13 13 12 11 11 10 10 10 10 10 10 10 10 10 10 10 9 9 9 9 9 9 9 9 9
19 18 17 16 16 17 19 19 19 19 19 19 18 17 15 14 14 13 12 11 10 11 11 10 10 10 10 10 10 10 10 10 10 10 9 9 9 9 9 9 9 9
20 19 18 17 17 18 19 19 19 19 19 19 18 17 16 15 14 13 12 10 10 10 10 10 10 10 10 10 10 10 10 9 10 10 9 9 9 9 9 10 9 9
20 20 19 18 18 19 19 19 19 20 20 19 18 18 17 15 14 13 12 11 10 10 10 10 10 10 9 10 10 10 9 8 9 10 9 9 9 10 10 10 10 9
20 21 20 19 19 20 20 20 20 20 20 19 18 18 17 16 15 13 12 11 10 10 10 10 10 10 9 10 10 10 9 8 9 9 9 9 9 10 9 10 10 10
20 21 20 20 20 20 21 20 20 20 20 19 18 18 17 16 14 13 12 12 11 10 10 10 9 9 9 10 10 10 9 9 9 9 10 10 9 9 9 9 9 9
20 21 20 20 20 21 21 21 20 21 20 19 18 18 17 16 15 14 13 12 11 10 10 10 9 9 9 10 10 10 10 10 9 9 10 11 10 9 9 10 9 9
20 21 21 21 20 20 21 21 20 21 20 20 19 18 17 16 15 14 13 12 11 10 10 10 10 10 10 10 10 10 11 11 10 9 9 10 10 9 9 10 9 10
20 20 20 22 21 20 21 21 21 21 20 20 20 19 17 16 15 14 13 12 11 10 10 10 10 10 10 10 10 10 11 11 11 10 9 9 10 9 10 10 10 10
20 20 21 22 22 21 21 21 21 21 21 20 20 18 17 16 15 14 13 12 11 11 10 10 10 10 10 10 10 10 11 11 11 10 10 10 10 9 9 10 10 10
19 20 21 21 21 21 21 21 21 22 21 20 19 18 17 17 16 15 14 13 12 11 10 10 10 10 9 10 10 10 11 12 12 12 11 11 10 10 10 10 10 10
19 20 20 21 21 21 21 20 21 23 21 19 18 18 17 17 16 15 14 13 13 12 11 10 10 10 9 10 10 10 11 12 12 13 13 12 12 11 11 11 11 11
19 19 19 20 20 21 20 20 22 22 21 19 18 18 18 17 17 16 14 13 13 12 11 11 11 10 10 10 10 10 11 12 12 12 12 12 12 12 12 12 12 12
18 18 18 19 20 20 20 20 21 21 20 20 19 18 18 17 17 16 14 13 14 13 12 12 11 11 11 11 11 11 12 13 13 12 12 11 12 12 12 13 13 13
16 16 17 18 20 20 20 20 21 20 19 19 18 18 18 17 16 16 15 14 14 14 13 13 12 12 12 12 12 12 13 13 14 14 13 12 13 13 13 13 13 14
15 16 17 18 19 20 20 20 20 20 19 18 18 17 17 17 16 16 15 14 14 14 14 13 13 13 13 13 13 13 14 14 15 15 15 14 15 15 15 15 15 15
13 15 16 18 19 20 19 19 19 19 18 18 17 17 16 16 16 16 15 15 14 14 14 14 14 14 15 15 15 15 15 16 16 17 17 17 16 17 17 18 17 17
10 11 14 15 17 18 19 18 18 18 18 18 17 17 16 16 16 16 15 15 15 15 15 15 15 15 16 16 16 17 17 17 18 18 18 18 18 18 18 19 18 18
8 9 11 12 14 16 17 17 17 17 18 18 18 18 17 17 16 16 16 16 15 15 15 15 15 15 15 16 16 17 17 18 18 17 17 18 19 19 19 19 19 19
8 9 10 11 13 15 17 17 16 17 18 18 18 18 18 18 17 17 16 16 15 15 15 14 14 14 14 14 14 15 15 16 16 16 17 18 18 19 19 19 19 20
Wind_Direction
227 226 223 220 218 216 214 213 210 207 206 208 209 208 207 206 207 207 207 208 210 210 209 210 211 211 212 212 214 215 216 217 219 222 226 228 227 225 223 221 218 217
222 222 221 219 218 216 214 213 210 207 207 207 207 206 206 205 205 206 205 204 206 208 209 210 211 212 213 213 215 215 215 217 219 222 225 227 227 224 222 219 216 214
222 220 221 222 219 215 213 211 208 206 205 204 204 205 204 203 203 204 204 203 205 208 210 212 213 213 214 214 216 217 217 217 220 222 223 225 226 223 220 217 214 213
223 223 224 224 219 214 212 208 205 204 203 202 202 203 202 202 203 204 204 204 206 209 212 212 213 214 214 215 217 217 217 218 220 221 222 225 225 221 217 214 213 213
224 225 225 223 219 214 211 208 204 203 202 201 201 201 202 202 203 204 204 204 205 209 211 210 211 213 214 215 216 216 217 218 219 219 221 222 221 219 216 213 212 212
223 223 222 221 218 214 211 208 204 202 201 201 201 202 204 204 203 203 203 205 207 209 209 207 208 211 213 214 213 214 215 216 217 217 218 218 218 218 216 213 212 212
220 220 219 218 216 214 210 207 204 202 201 201 201 203 204 203 201 201 204 207 210 209 207 206 206 207 210 211 210 212 213 213 213 214 216 217 218 218 216 213 212 212
219 218 217 216 215 212 208 205 203 202 200 200 200 202 203 200 198 201 206 209 208 207 206 206 206 206 209 210 211 212 213 214 216 215 216 218 219 218 216 212 210 210
220 218 216 214 212 210 207 204 202 201 200 199 199 201 201 198 199 202 205 205 204 204 205 206 206 206 209 212 211 211 215 221 219 215 217 220 219 218 215 211 209 208
218 216 215 213 211 209 206 202 200 200 200 199 200 200 198 197 200 202 202 203 203 205 205 206 206 206 209 211 210 210 215 217 211 210 216 220 217 216 214 212 210 207
215 212 214 212 210 209 204 200 200 200 199 200 201 199 197 198 201 202 202 205 208 209 207 206 209 209 209 211 211 212 215 211 206 210 216 215 214 214 214 212 209 207
212 210 212 211 209 207 203 200 200 199 199 200 200 198 197 199 202 204 205 208 212 213 209 208 212 211 212 214 213 214 216 212 211 215 215 211 210 211 211 209 206 206
212 209 210 209 207 204 201 200 200 199 199 200 199 196 197 201 203 205 207 210 212 213 211 211 214 215 216 217 215 215 216 213 214 218 214 210 209 210 211 210 209 210
211 209 209 207 205 203 200 199 199 199 199 200 198 196 198 201 203 204 207 210 212 213 212 213 217 217 216 216 216 218 215 212 214 216 210 208 211 214 214 213 215 218
211 210 208 205 203 201 198 197 198 198 198 199 198 198 200 203 204 205 206 207 210 212 213 214 217 218 217 217 219 219 216 213 214 214 212 213 215 217 217 217 220 224
210 207 204 203 204 201 197 198 198 196 196 198 199 201 204 205 205 206 205 207 210 212 214 215 217 219 221 223 223 221 218 217 217 217 218 219 218 219 220 219 220 225
208 205 202 204 205 200 197 198 198 196 197 199 201 203 205 205 206 206 206 209 213 214 214 215 217 220 222 224 225 224 221 221 221 221 222 225 226 226 225 223 224 227
207 203 201 202 202 199 198 199 197 195 197 200 201 202 204 205 206 207 208 212 215 216 215 214 216 221 223 224 226 227 225 224 225 225 226 228 229 229 228 227 228 231
205 201 200 200 200 200 199 197 194 194 197 200 201 202 204 205 206 208 211 214 216 217 217 217 219 224 226 226 228 229 229 228 228 229 229 229 229 230 231 231 232 234
202 200 200 201 200 200 198 195 193 195 198 201 203 203 204 206 208 210 212 214 216 218 220 221 224 228 230 230 232 235 235 232 232 232 233 233 234 235 235 234 235 238
201 201 200 199 199 199 197 195 195 197 199 202 204 205 206 207 210 211 213 216 219 220 221 224 228 232 233 233 236 238 237 235 235 235 236 239 241 242 242 240 240 242
202 203 202 200 199 198 197 198 199 200 201 203 204 206 208 209 211 213 215 217 220 223 225 228 233 236 236 237 240 242 240 238 238 238 241 245 247 246 248 249 248 248
201 202 202 202 201 200 199 199 200 201 202 204 204 205 208 210 212 215 218 220 223 227 230 233 236 240 242 242 244 245 243 242 242 244 245 246 247 248 250 252 253 253
197 199 200 200 200 199 198 197 199 201 203 204 205 207 209 211 214 216 219 223 227 232 235 238 242 246 248 246 246 247 246 246 248 249 247 246 247 251 254 256 257 257
188 191 196 198 199 200 198 198 200 204 206 208 210 213 214 216 218 220 223 228 233 236 240 242 245 248 249 248 247 247 248 248 249 249 246 245 248 252 255 257 258 259
191 189 191 194 196 197 198 201 205 207 210 213 217 220 221 222 225 224 225 230 234 236 239 241 243 245 247 247 247 247 247 248 248 246 245 246 249 253 255 257 259 260